| time (UTC) | temp C | wind direction | speed KPH | gust KPH | rain 1hr cm | rain 24hr cm | rain mn cm | humidity % | barometer mb |
| 20260901172803 | 32 | 280 | 3.2 | 9.7 | 0.00 | 0.00 | 0.00 | 49 | 1017.6 |
| 20260901171303 | 32 | 222 | 4.8 | 12.9 | 0.00 | 0.00 | 0.00 | 50 | 1017.6 |
| 20260901170303 | 32 | 264 | 4.8 | 14.5 | 0.00 | 0.00 | 0.00 | 51 | 1017.8 |
| 20260901165803 | 32 | 122 | 4.8 | 14.5 | 0.00 | 0.00 | 0.00 | 51 | 1017.8 |
| 20260901165306 | 32 | 131 | 3.2 | 19.3 | 0.00 | 0.00 | 0.00 | 51 | 1017.8 |
| 20260901164803 | 32 | 281 | 4.8 | 19.3 | 0.00 | 0.00 | 0.00 | 52 | 1017.9 |
| 20260901164303 | 31 | 309 | 8.0 | 9.7 | 0.00 | 0.00 | 0.00 | 51 | 1017.9 |
| 20260901163803 | 31 | 98 | 11.3 | 9.7 | 0.00 | 0.00 | 0.00 | 52 | 1017.9 |
| 20260901163303 | 31 | 136 | 9.7 | 24.1 | 0.00 | 0.00 | 0.00 | 51 | 1017.9 |
| 20260901162803 | 31 | 148 | 9.7 | 24.1 | 0.00 | 0.00 | 0.00 | 51 | 1017.9 |
| 20260901162306 | 31 | 68 | 9.7 | 12.9 | 0.00 | 0.00 | 0.00 | 53 | 1017.9 |
| 20260901161804 | 31 | 51 | 11.3 | 19.3 | 0.00 | 0.00 | 0.00 | 54 | 1017.9 |
| 20260901161303 | 31 | 104 | 9.7 | 29.0 | 0.00 | 0.00 | 0.00 | 54 | 1017.9 |
| 20260901160803 | 31 | 100 | 9.7 | 29.0 | 0.00 | 0.00 | 0.00 | 55 | 1017.9 |
| 20260901160303 | 31 | 90 | 9.7 | 16.1 | 0.00 | 0.00 | 0.00 | 54 | 1017.9 |
| 20260901155803 | 31 | 142 | 9.7 | 32.2 | 0.00 | 0.00 | 0.00 | 55 | 1017.9 |
| 20260901155306 | 31 | 68 | 8.0 | 32.2 | 0.00 | 0.00 | 0.00 | 54 | 1017.9 |
| 20260901154803 | 31 | 280 | 4.8 | 14.5 | 0.00 | 0.00 | 0.00 | 56 | 1017.9 |
| 20260901154303 | 31 | 258 | 8.0 | 19.3 | 0.00 | 0.00 | 0.00 | 56 | 1017.9 |
| 20260901153803 | 30 | 142 | 8.0 | 19.3 | 0.00 | 0.00 | 0.00 | 56 | 1017.9 |
| 20260901153303 | 30 | 100 | 8.0 | 11.3 | 0.00 | 0.00 | 0.00 | 56 | 1017.9 |
| 20260901152803 | 30 | 56 | 4.8 | 11.3 | 0.00 | 0.00 | 0.00 | 57 | 1017.8 |
| 20260901151803 | 30 | 214 | 4.8 | 12.9 | 0.00 | 0.00 | 0.00 | 58 | 1017.8 |
| 20260901151303 | 30 | 110 | 4.8 | 9.7 | 0.00 | 0.00 | 0.00 | 58 | 1017.8 |
| 20260901150303 | 30 | 342 | 4.8 | 12.9 | 0.00 | 0.00 | 0.00 | 59 | 1017.7 |
| 20260901145803 | 29 | 101 | 6.4 | 11.3 | 0.00 | 0.00 | 0.00 | 60 | 1017.7 |
| 20260901145306 | 29 | 118 | 8.0 | 11.3 | 0.00 | 0.00 | 0.00 | 60 | 1017.7 |
| 20260901144803 | 28 | 347 | 4.8 | 11.3 | 0.00 | 0.00 | 0.00 | 60 | 1018.0 |
| 20260901144303 | 28 | 104 | 3.2 | 12.9 | 0.00 | 0.00 | 0.00 | 61 | 1018.0 |
| 20260901143803 | 28 | 183 | 4.8 | 4.8 | 0.00 | 0.00 | 0.00 | 62 | 1018.0 |
| 20260901143303 | 28 | 161 | 4.8 | 11.3 | 0.00 | 0.00 | 0.00 | 63 | 1018.0 |
| 20260901142803 | 28 | 114 | 4.8 | 11.3 | 0.00 | 0.00 | 0.00 | 65 | 1018.0 |
| 20260901142305 | 28 | 82 | 4.8 | 12.9 | 0.00 | 0.00 | 0.00 | 64 | 1018.0 |
| 20260901141803 | 27 | 100 | 4.8 | 12.9 | 0.00 | 0.00 | 0.00 | 66 | 1018.0 |
| 20260901141303 | 27 | 118 | 4.8 | 9.7 | 0.00 | 0.00 | 0.00 | 67 | 1018.0 |
| 20260901140303 | 27 | 100 | 3.2 | 9.7 | 0.00 | 0.00 | 0.00 | 69 | 1017.9 |
| 20260901135803 | 26 | 123 | 3.2 | 9.7 | 0.00 | 0.00 | 0.00 | 70 | 1017.9 |
| 20260901135305 | 26 | 119 | 3.2 | 8.0 | 0.00 | 0.00 | 0.00 | 70 | 1017.9 |
| 20260901133803 | 26 | 147 | 0.0 | 0.0 | 0.00 | 0.00 | 0.00 | 73 | 1018.0 |
| 20260901133303 | 26 | 145 | 0.0 | 3.2 | 0.00 | 0.00 | 0.00 | 74 | 1018.0 |
| 20260901132804 | 25 | 104 | 1.6 | 3.2 | 0.00 | 0.00 | 0.00 | 75 | 1017.8 |
| 20260901132306 | 25 | 100 | 0.0 | 0.0 | 0.00 | 0.00 | 0.00 | 75 | 1017.8 |
| 20260901131803 | 25 | 104 | 0.0 | 3.2 | 0.00 | 0.00 | 0.00 | 76 | 1017.8 |
| 20260901131303 | 25 | 123 | 0.0 | 3.2 | 0.00 | 0.00 | 0.00 | 77 | 1017.8 |
| 20260901130805 | 25 | 98 | 1.6 | 0.0 | 0.00 | 0.00 | 0.00 | 77 | 1017.9 |
| 20260901130303 | 24 | 156 | 3.2 | 4.8 | 0.00 | 0.00 | 0.00 | 78 | 1017.9 |
| 20260901125803 | 24 | 117 | 3.2 | 4.8 | 0.00 | 0.00 | 0.00 | 78 | 1017.9 |
| 20260901125308 | 24 | 145 | 1.6 | 4.8 | 0.00 | 0.00 | 0.00 | 79 | 1017.9 |
| 20260901124804 | 24 | 100 | 1.6 | 4.8 | 0.00 | 0.00 | 0.00 | 80 | 1017.7 |
| 20260901124303 | 23 | 121 | 1.6 | 4.8 | 0.00 | 0.00 | 0.00 | 80 | 1017.6 |
| 20260901123803 | 23 | 105 | 1.6 | 4.8 | 0.00 | 0.00 | 0.00 | 80 | 1017.6 |
| 20260901123303 | 23 | 160 | 0.0 | 0.0 | 0.00 | 0.00 | 0.00 | 81 | 1017.6 |
| 20260901122803 | 23 | 118 | 0.0 | 0.0 | 0.00 | 0.00 | 0.00 | 81 | 1017.5 |
| 20260901122306 | 23 | 212 | 0.0 | 0.0 | 0.00 | 0.00 | 0.00 | 81 | 1017.5 |
| 20260901121803 | 23 | 103 | 0.0 | 3.2 | 0.00 | 0.00 | 0.00 | 81 | 1017.5 |
| 20260901121303 | 23 | 122 | 0.0 | 0.0 | 0.00 | 0.00 | 0.00 | 81 | 1017.5 |
| 20260901120803 | 23 | 117 | 0.0 | 0.0 | 0.00 | 0.00 | 0.00 | 82 | 1017.4 |
| 20260901120304 | 23 | 235 | 0.0 | 0.0 | 0.00 | 0.00 | 0.00 | 82 | 1017.4 |
| 20260901115804 | 23 | 132 | 0.0 | 0.0 | 0.00 | 0.00 | 0.00 | 82 | 1017.4 |
| 20260901115306 | 23 | 144 | 0.0 | 0.0 | 0.00 | 0.00 | 0.00 | 81 | 1017.4 |
| 20260901114803 | 23 | 93 | 0.0 | 0.0 | 0.00 | 0.00 | 0.00 | 81 | 1017.2 |
| 20260901113803 | 23 | 159 | 0.0 | 0.0 | 0.00 | 0.00 | 0.00 | 80 | 1017.1 |
| 20260901113304 | 23 | 81 | 0.0 | 0.0 | 0.00 | 0.00 | 0.00 | 80 | 1017.1 |
| 20260901112306 | 23 | 171 | 0.0 | 0.0 | 0.00 | 0.00 | 0.00 | 80 | 1017.2 |
| 20260901111803 | 23 | 159 | 0.0 | 0.0 | 0.00 | 0.00 | 0.00 | 79 | 1017.2 |
| 20260901110803 | 23 | 242 | 0.0 | 0.0 | 0.00 | 0.00 | 0.00 | 80 | 1017.0 |
| 20260901110303 | 23 | 302 | 0.0 | 0.0 | 0.00 | 0.00 | 0.00 | 79 | 1016.9 |
| 20260901105803 | 23 | 107 | 0.0 | 0.0 | 0.00 | 0.00 | 0.00 | 79 | 1016.9 |
| 20260901104803 | 22 | 109 | 0.0 | 0.0 | 0.00 | 0.00 | 0.00 | 79 | 1016.9 |
| 20260901104303 | 22 | 248 | 0.0 | 0.0 | 0.00 | 0.00 | 0.00 | 79 | 1016.9 |
| 20260901103803 | 22 | 117 | 0.0 | 0.0 | 0.00 | 0.00 | 0.00 | 78 | 1016.9 |
| 20260901103303 | 22 | 108 | 0.0 | 0.0 | 0.00 | 0.00 | 0.00 | 78 | 1017.1 |
| 20260901102803 | 22 | 55 | 0.0 | 0.0 | 0.00 | 0.00 | 0.00 | 78 | 1017.0 |
| 20260901102306 | 22 | 187 | 0.0 | 0.0 | 0.00 | 0.00 | 0.00 | 78 | 1017.0 |
| 20260901101804 | 23 | 113 | 0.0 | 0.0 | 0.00 | 0.00 | 0.00 | 78 | 1017.0 |
| 20260901101303 | 23 | 106 | 0.0 | 0.0 | 0.00 | 0.00 | 0.00 | 78 | 1017.0 |
| 20260901100804 | 23 | 159 | 0.0 | 0.0 | 0.00 | 0.00 | 0.00 | 77 | 1016.8 |
| 20260901100303 | 23 | 147 | 0.0 | 0.0 | 0.00 | 0.00 | 0.00 | 78 | 1016.8 |
| 20260901095804 | 23 | 159 | 0.0 | 0.0 | 0.00 | 0.00 | 0.00 | 77 | 1016.8 |
| 20260901095306 | 23 | 145 | 0.0 | 0.0 | 0.00 | 0.00 | 0.00 | 78 | 1016.8 |
| 20260901094303 | 23 | 61 | 0.0 | 0.0 | 0.00 | 0.00 | 0.00 | 77 | 1016.9 |
| 20260901093803 | 23 | 50 | 0.0 | 0.0 | 0.00 | 0.00 | 0.00 | 77 | 1016.9 |
| 20260901092803 | 23 | 115 | 0.0 | 0.0 | 0.00 | 0.00 | 0.00 | 76 | 1016.7 |
| 20260901092305 | 23 | 100 | 0.0 | 0.0 | 0.00 | 0.00 | 0.00 | 74 | 1016.6 |
| 20260901091803 | 23 | 136 | 0.0 | 0.0 | 0.00 | 0.00 | 0.00 | 76 | 1016.6 |
| 20260901091304 | 23 | 147 | 0.0 | 0.0 | 0.00 | 0.00 | 0.00 | 74 | 1016.6 |
| 20260901090803 | 23 | 83 | 0.0 | 0.0 | 0.00 | 0.00 | 0.00 | 73 | 1016.3 |
| 20260901090303 | 23 | 122 | 0.0 | 0.0 | 0.00 | 0.00 | 0.00 | 74 | 1016.2 |
| 20260901085804 | 23 | 196 | 0.0 | 0.0 | 0.00 | 0.00 | 0.00 | 73 | 1016.2 |
| 20260901085305 | 23 | 16 | 0.0 | 0.0 | 0.00 | 0.00 | 0.00 | 72 | 1016.2 |
| 20260901084804 | 23 | 100 | 0.0 | 0.0 | 0.00 | 0.00 | 0.00 | 72 | 1016.2 |
| 20260901084304 | 23 | 100 | 0.0 | 0.0 | 0.00 | 0.00 | 0.00 | 72 | 1016.2 |
| 20260901083804 | 23 | 163 | 0.0 | 0.0 | 0.00 | 0.00 | 0.00 | 71 | 1016.2 |
| 20260901082803 | 23 | 24 | 0.0 | 0.0 | 0.00 | 0.00 | 0.00 | 71 | 1016.3 |
| 20260901082306 | 23 | 205 | 0.0 | 0.0 | 0.00 | 0.00 | 0.00 | 71 | 1016.3 |
| 20260901081305 | 23 | 106 | 0.0 | 0.0 | 0.00 | 0.00 | 0.00 | 71 | 1016.3 |
| 20260901080803 | 23 | 177 | 0.0 | 0.0 | 0.00 | 0.00 | 0.00 | 71 | 1016.2 |
| 20260901080304 | 24 | 205 | 0.0 | 0.0 | 0.00 | 0.00 | 0.00 | 70 | 1016.2 |
| 20260901075803 | 24 | 100 | 0.0 | 0.0 | 0.00 | 0.00 | 0.00 | 70 | 1016.2 |
| 20260901074803 | 24 | 83 | 0.0 | 0.0 | 0.00 | 0.00 | 0.00 | 70 | 1016.4 |
| 20260901074304 | 24 | 206 | 0.0 | 0.0 | 0.00 | 0.00 | 0.00 | 70 | 1016.4 |
| 20260901073803 | 24 | 100 | 0.0 | 0.0 | 0.00 | 0.00 | 0.00 | 69 | 1016.4 |
| 20260901073303 | 24 | 100 | 0.0 | 0.0 | 0.00 | 0.00 | 0.00 | 69 | 1016.4 |
| 20260901072803 | 24 | 136 | 0.0 | 0.0 | 0.00 | 0.00 | 0.00 | 69 | 1016.2 |
| 20260901072308 | 24 | 125 | 0.0 | 0.0 | 0.00 | 0.00 | 0.00 | 69 | 1016.2 |
| 20260901071804 | 25 | 25 | 0.0 | 3.2 | 0.00 | 0.00 | 0.00 | 69 | 1016.2 |
| 20260901071303 | 25 | 125 | 0.0 | 3.2 | 0.00 | 0.00 | 0.00 | 68 | 1016.2 |
| 20260901070803 | 25 | 230 | 0.0 | 0.0 | 0.00 | 0.00 | 0.00 | 69 | 1016.2 |
| 20260901070304 | 25 | 162 | 0.0 | 0.0 | 0.00 | 0.00 | 0.00 | 68 | 1016.2 |
| 20260901065804 | 25 | 135 | 0.0 | 0.0 | 0.00 | 0.00 | 0.00 | 68 | 1016.2 |
| 20260901065305 | 25 | 152 | 0.0 | 0.0 | 0.00 | 0.00 | 0.00 | 68 | 1016.2 |
| 20260901064804 | 25 | 177 | 0.0 | 0.0 | 0.00 | 0.00 | 0.00 | 68 | 1016.3 |
| 20260901063303 | 25 | 159 | 0.0 | 0.0 | 0.00 | 0.00 | 0.00 | 67 | 1016.3 |
| 20260901062804 | 25 | 136 | 0.0 | 0.0 | 0.00 | 0.00 | 0.00 | 67 | 1016.4 |
| 20260901062309 | 25 | 145 | 0.0 | 0.0 | 0.00 | 0.00 | 0.00 | 67 | 1016.4 |
| 20260901061804 | 25 | 122 | 1.6 | 0.0 | 0.00 | 0.00 | 0.00 | 66 | 1016.4 |
| 20260901061304 | 25 | 139 | 1.6 | 4.8 | 0.00 | 0.00 | 0.00 | 66 | 1016.4 |
| 20260901060804 | 25 | 86 | 0.0 | 4.8 | 0.00 | 0.00 | 0.00 | 66 | 1016.2 |
| 20260901055803 | 25 | 122 | 1.6 | 4.8 | 0.00 | 0.00 | 0.00 | 65 | 1016.2 |
| 20260901055306 | 25 | 100 | 3.2 | 4.8 | 0.00 | 0.00 | 0.00 | 66 | 1016.2 |
| 20260901054804 | 25 | 126 | 1.6 | 8.0 | 0.00 | 0.00 | 0.00 | 65 | 1016.3 |
| 20260901054303 | 25 | 124 | 1.6 | 8.0 | 0.00 | 0.00 | 0.00 | 65 | 1016.3 |
| 20260901053304 | 25 | 110 | 1.6 | 8.0 | 0.00 | 0.00 | 0.00 | 64 | 1016.3 |
| 20260901052804 | 26 | 123 | 1.6 | 8.0 | 0.00 | 0.00 | 0.00 | 65 | 1016.5 |
| 20260901052306 | 26 | 71 | 1.6 | 4.8 | 0.00 | 0.00 | 0.00 | 64 | 1016.5 |
| 20260901051804 | 26 | 138 | 3.2 | 4.8 | 0.00 | 0.00 | 0.00 | 64 | 1016.5 |
| 20260901050823 | 26 | 145 | 3.2 | 11.3 | 0.00 | 0.00 | 0.00 | 64 | 1016.3 |
| 20260901050304 | 26 | 258 | 1.6 | 4.8 | 0.00 | 0.00 | 0.00 | 63 | 1016.3 |
| 20260901045306 | 26 | 106 | 1.6 | 4.8 | 0.00 | 0.00 | 0.00 | 63 | 1016.3 |
| 20260901044804 | 26 | 240 | 1.6 | 9.7 | 0.00 | 0.00 | 0.00 | 62 | 1016.4 |
| 20260901044304 | 26 | 100 | 1.6 | 9.7 | 0.00 | 0.00 | 0.00 | 62 | 1016.4 |
| 20260901043304 | 26 | 100 | 0.0 | 3.2 | 0.00 | 0.00 | 0.00 | 61 | 1016.4 |
| 20260901041803 | 26 | 222 | 3.2 | 4.8 | 0.00 | 0.00 | 0.00 | 60 | 1016.4 |
| 20260901041304 | 26 | 117 | 4.8 | 8.0 | 0.00 | 0.00 | 0.00 | 60 | 1016.4 |
| 20260901040804 | 27 | 108 | 6.4 | 12.9 | 0.00 | 0.00 | 0.00 | 59 | 1016.4 |
| 20260901040304 | 27 | 140 | 4.8 | 11.3 | 0.00 | 0.00 | 0.00 | 59 | 1016.4 |
| 20260901035803 | 27 | 83 | 3.2 | 11.3 | 0.00 | 0.00 | 0.00 | 58 | 1016.4 |
| 20260901035305 | 27 | 100 | 1.6 | 9.7 | 0.00 | 0.00 | 0.00 | 58 | 1016.4 |
| 20260901034304 | 27 | 85 | 4.8 | 9.7 | 0.00 | 0.00 | 0.00 | 57 | 1016.6 |
| 20260901033804 | 27 | 95 | 4.8 | 9.7 | 0.00 | 0.00 | 0.00 | 57 | 1016.6 |
| 20260901033303 | 27 | 120 | 3.2 | 8.0 | 0.00 | 0.00 | 0.00 | 57 | 1016.6 |
| 20260901032306 | 27 | 181 | 1.6 | 8.0 | 0.00 | 0.00 | 0.00 | 57 | 1016.3 |
| 20260901031805 | 27 | 197 | 1.6 | 8.0 | 0.00 | 0.00 | 0.00 | 57 | 1016.3 |
| 20260901030803 | 27 | 140 | 0.0 | 4.8 | 0.00 | 0.00 | 0.00 | 56 | 1016.2 |
| 20260901030304 | 27 | 150 | 0.0 | 3.2 | 0.00 | 0.00 | 0.00 | 56 | 1016.2 |
| 20260901025803 | 27 | 341 | 0.0 | 4.8 | 0.00 | 0.00 | 0.00 | 56 | 1016.2 |
| 20260901025306 | 27 | 102 | 1.6 | 8.0 | 0.00 | 0.00 | 0.00 | 56 | 1016.2 |
| 20260901024803 | 27 | 109 | 1.6 | 8.0 | 0.00 | 0.00 | 0.00 | 56 | 1016.1 |
| 20260901023803 | 27 | 159 | 1.6 | 8.0 | 0.00 | 0.00 | 0.00 | 56 | 1016.1 |
| 20260901023304 | 28 | 145 | 1.6 | 9.7 | 0.00 | 0.00 | 0.00 | 56 | 1016.1 |
| 20260901022306 | 28 | 141 | 1.6 | 0.0 | 0.00 | 0.00 | 0.00 | 54 | 1016.2 |
| 20260901021803 | 28 | 339 | 1.6 | 9.7 | 0.00 | 0.00 | 0.00 | 55 | 1016.2 |
| 20260901021303 | 28 | 148 | 0.0 | 3.2 | 0.00 | 0.00 | 0.00 | 54 | 1016.2 |
| 20260901020303 | 28 | 97 | 0.0 | 0.0 | 0.00 | 0.00 | 0.00 | 54 | 1015.5 |
| 20260901015803 | 28 | 83 | 0.0 | 0.0 | 0.00 | 0.00 | 0.00 | 54 | 1015.5 |
| 20260901015305 | 29 | 102 | 0.0 | 3.2 | 0.00 | 0.00 | 0.00 | 54 | 1015.5 |
| 20260901014804 | 29 | 136 | 0.0 | 0.0 | 0.00 | 0.00 | 0.00 | 55 | 1015.8 |
| 20260901014303 | 29 | 60 | 0.0 | 0.0 | 0.00 | 0.00 | 0.00 | 53 | 1015.9 |
| 20260901013803 | 29 | 100 | 0.0 | 0.0 | 0.00 | 0.00 | 0.00 | 52 | 1015.9 |
| 20260901013304 | 29 | 321 | 0.0 | 4.8 | 0.00 | 0.00 | 0.00 | 50 | 1015.9 |
| 20260901012804 | 29 | 327 | 0.0 | 4.8 | 0.00 | 0.00 | 0.00 | 50 | 1015.6 |
| 20260901011804 | 30 | 353 | 0.0 | 0.0 | 0.00 | 0.00 | 0.00 | 49 | 1015.5 |
| 20260901010803 | 30 | 173 | 1.6 | 4.8 | 0.00 | 0.00 | 0.00 | 48 | 1015.3 |
| 20260901010304 | 30 | 119 | 1.6 | 4.8 | 0.00 | 0.00 | 0.00 | 47 | 1015.2 |
| 20260901005804 | 30 | 106 | 1.6 | 4.8 | 0.00 | 0.00 | 0.00 | 45 | 1015.2 |
| 20260901005306 | 30 | 64 | 0.0 | 4.8 | 0.00 | 0.00 | 0.00 | 43 | 1015.2 |
| 20260901004803 | 31 | 289 | 1.6 | 0.0 | 0.00 | 0.00 | 0.00 | 41 | 1015.1 |
| 20260901004303 | 31 | 188 | 3.2 | 8.0 | 0.00 | 0.00 | 0.00 | 41 | 1015.1 |
| 20260901003804 | 31 | 114 | 3.2 | 8.0 | 0.00 | 0.00 | 0.00 | 40 | 1015.1 |
| 20260901003304 | 31 | 124 | 3.2 | 4.8 | 0.00 | 0.00 | 0.00 | 39 | 1015.1 |
| 20260901002803 | 31 | 331 | 3.2 | 4.8 | 0.00 | 0.00 | 0.00 | 38 | 1015.2 |
| 20260901002305 | 31 | 103 | 3.2 | 8.0 | 0.00 | 0.00 | 0.00 | 37 | 1015.2 |
| 20260901001804 | 32 | 145 | 1.6 | 8.0 | 0.00 | 0.00 | 0.00 | 37 | 1015.2 |
| 20260901001304 | 32 | 124 | 1.6 | 8.0 | 0.00 | 0.00 | 0.00 | 37 | 1015.2 |
| 20260901000304 | 32 | 145 | 3.2 | 8.0 | 0.00 | 0.00 | 0.00 | 35 | 1015.2 |
| 20260831235804 | 32 | 150 | 3.2 | 8.0 | 0.00 | 0.00 | 0.00 | 35 | 1015.2 |
| 20260831235306 | 33 | 122 | 1.6 | 8.0 | 0.00 | 0.00 | 0.00 | 34 | 1015.2 |
| 20260831234804 | 33 | 100 | 3.2 | 8.0 | 0.00 | 0.00 | 0.00 | 34 | 1015.4 |
| 20260831234304 | 33 | 119 | 3.2 | 9.7 | 0.00 | 0.00 | 0.00 | 34 | 1015.4 |
| 20260831233804 | 33 | 84 | 3.2 | 12.9 | 0.00 | 0.00 | 0.00 | 34 | 1015.4 |
| 20260831232803 | 34 | 145 | 4.8 | 11.3 | 0.00 | 0.00 | 0.00 | 31 | 1015.0 |
| 20260831232305 | 35 | 100 | 3.2 | 11.3 | 0.00 | 0.00 | 0.00 | 31 | 1014.9 |
| 20260831231803 | 35 | 91 | 3.2 | 9.7 | 0.00 | 0.00 | 0.00 | 29 | 1014.9 |
| 20260831231304 | 36 | 122 | 3.2 | 8.0 | 0.00 | 0.00 | 0.00 | 28 | 1014.9 |
| 20260831230304 | 37 | 146 | 3.2 | 4.8 | 0.00 | 0.00 | 0.00 | 25 | 1015.1 |
| 20260831225306 | 38 | 78 | 3.2 | 8.0 | 0.00 | 0.00 | 0.00 | 24 | 1015.1 |
| 20260831224804 | 39 | 135 | 3.2 | 12.9 | 0.00 | 0.00 | 0.00 | 24 | 1015.2 |
| 20260831224304 | 39 | 144 | 3.2 | 8.0 | 0.00 | 0.00 | 0.00 | 24 | 1015.2 |
| 20260831223803 | 38 | 242 | 4.8 | 4.8 | 0.00 | 0.00 | 0.00 | 24 | 1015.2 |
| 20260831223304 | 38 | 170 | 3.2 | 11.3 | 0.00 | 0.00 | 0.00 | 24 | 1015.2 |
| 20260831222807 | 38 | 135 | 8.0 | 11.3 | 0.00 | 0.00 | 0.00 | 31 | 1015.6 |
| 20260831195804 | 37 | 145 | 8.0 | 12.9 | 0.00 | 0.00 | 0.00 | 31 | 1015.6 |
| 20260831195306 | 37 | 122 | 8.0 | 14.5 | 0.00 | 0.00 | 0.00 | 31 | 1015.6 |
| 20260831194804 | 37 | 253 | 8.0 | 24.1 | 0.00 | 0.00 | 0.00 | 30 | 1015.8 |
| 20260831194304 | 37 | 220 | 8.0 | 24.1 | 0.00 | 0.00 | 0.00 | 29 | 1015.8 |
| 20260831193803 | 37 | 145 | 4.8 | 11.3 | 0.00 | 0.00 | 0.00 | 31 | 1015.8 |
| 20260831192803 | 37 | 122 | 4.8 | 11.3 | 0.00 | 0.00 | 0.00 | 33 | 1016.2 |
| 20260831192305 | 37 | 95 | 3.2 | 9.7 | 0.00 | 0.00 | 0.00 | 32 | 1016.2 |
| 20260831191804 | 37 | 302 | 4.8 | 11.3 | 0.00 | 0.00 | 0.00 | 32 | 1016.2 |
| 20260831191304 | 37 | 151 | 8.0 | 11.3 | 0.00 | 0.00 | 0.00 | 33 | 1016.2 |
| 20260831190804 | 37 | 212 | 8.0 | 9.7 | 0.00 | 0.00 | 0.00 | 33 | 1016.4 |
| 20260831185804 | 36 | 280 | 4.8 | 9.7 | 0.00 | 0.00 | 0.00 | 35 | 1016.4 |
| 20260831185306 | 36 | 212 | 3.2 | 16.1 | 0.00 | 0.00 | 0.00 | 36 | 1016.4 |
| 20260831184803 | 37 | 145 | 4.8 | 16.1 | 0.00 | 0.00 | 0.00 | 35 | 1016.4 |
| 20260831183804 | 37 | 258 | 3.2 | 9.7 | 0.00 | 0.00 | 0.00 | 38 | 1016.4 |
| 20260831183304 | 37 | 107 | 4.8 | 9.7 | 0.00 | 0.00 | 0.00 | 38 | 1016.4 |
| 20260831182804 | 36 | 302 | 8.0 | 11.3 | 0.00 | 0.00 | 0.00 | 40 | 1016.6 |
| 20260831181804 | 36 | 78 | 9.7 | 14.5 | 0.00 | 0.00 | 0.00 | 41 | 1016.6 |
| 20260831181304 | 35 | 60 | 8.0 | 20.9 | 0.00 | 0.00 | 0.00 | 40 | 1016.6 |
| 20260831180804 | 35 | 122 | 8.0 | 20.9 | 0.00 | 0.00 | 0.00 | 40 | 1016.9 |
| 20260831180304 | 34 | 194 | 8.0 | 24.1 | 0.00 | 0.00 | 0.00 | 43 | 1016.9 |
| 20260831175306 | 34 | 218 | 4.8 | 19.3 | 0.00 | 0.00 | 0.00 | 44 | 1016.9 |
| 20260831174304 | 33 | 3 | 3.2 | 4.8 | 0.00 | 0.00 | 0.00 | 45 | 1017.0 |
| 20260831173803 | 33 | 78 | 4.8 | 9.7 | 0.00 | 0.00 | 0.00 | 46 | 1017.0 |